Spokane Felts, WA
on Tuesday, November 6, 2012

Tuesday
Previous Day Next Day
Daily Summary
 ActualAverageRecord
Temperature
Mean Temperature °F 40°F  
Max Temperature 59°F 48°F 63°F (2006)
Min Temperature 42°F 33°F 10°F (2003)
Degree Days
Heating Degree Days 14 25  
Month to date heating degree days 82 143  
Since 1 July heating degree days 641 880  
Cooling Degree Days 0 0  
Month to date cooling degree days 0 0  
Year to date cooling degree days 509 406  
Moisture
Dew Point 44°F   
Average Humidity 82    
Maximum Humidity 96    
Minimum Humidity 67    
Precipitation
Precipitation 0.02 in 0.07 in 0.30 in (1999)
Month to date precipitation 0.44 0.40  
Year to date precipitation 16.03 13.35  
Wind
Wind Speed 2 mph   
Max Wind Speed 12 mph   
Max Gust Speed 15 mph   
Visibility 6 miles   
Events Fog , Rain   

Key: T is trace of precipitation, MM is missing value
Source: NWS Daily Summary
Time(PST)TemperatureDew PointHumidity Pressure Visibility Wind DirectionWind SpeedGust SpeedPrecipitationEvents Conditions
12:53 AM 43.0°F 41.0°F 93% 30.22 in 0.2 miles Calm Calm - 0.01 in Fog Fog
1:53 AM 43.0°F 41.0°F 93% 30.21 in 0.5 miles Calm Calm - N/A Fog Fog
2:06 AM 42.8°F 41.0°F 93% 30.20 in 1.0 miles Calm Calm - N/A   Mist
2:15 AM 42.8°F 41.0°F 93% 30.20 in 3.0 miles Calm Calm - N/A   Overcast
2:41 AM 42.8°F 41.0°F 93% 30.20 in 1.8 miles Calm Calm - N/A   Overcast
2:53 AM 43.0°F 41.0°F 93% 30.20 in 1.0 miles Calm Calm - N/A   Overcast
3:12 AM 42.8°F 41.0°F 93% 30.19 in 2.5 miles NE 3.5 mph - N/A   Overcast
3:33 AM 42.8°F 39.2°F 87% 30.18 in 0.8 miles ENE 3.5 mph - N/A   Overcast
3:51 AM 42.8°F 39.2°F 87% 30.17 in 0.5 miles ENE 3.5 mph - N/A Fog Fog
3:53 AM 43.0°F 39.9°F 89% 30.18 in 0.5 miles ENE 3.5 mph - N/A Fog Fog
4:45 AM 42.8°F 39.2°F 87% 30.16 in 1.0 miles ENE 4.6 mph - N/A   Mist
4:49 AM 42.8°F 39.2°F 87% 30.16 in 3.0 miles NE 3.5 mph - N/A   Overcast
4:53 AM 43.0°F 39.9°F 89% 30.17 in 5.0 miles Calm Calm - N/A   Overcast
5:53 AM 43.0°F 39.9°F 89% 30.16 in 1.0 miles Calm Calm - N/A   Overcast
6:53 AM 43.0°F 39.9°F 89% 30.16 in 1.0 miles Calm Calm - N/A   Mist
7:53 AM 43.0°F 41.0°F 93% 30.15 in 1.0 miles Calm Calm - N/A   Overcast
8:53 AM 45.0°F 42.1°F 90% 30.13 in 6.0 miles Calm Calm - N/A   Overcast
9:28 AM 46.4°F 42.8°F 87% 30.10 in 8.0 miles Calm Calm - N/A   Overcast
9:53 AM 46.9°F 44.1°F 90% 30.11 in 3.0 miles North 3.5 mph - N/A   Overcast
10:35 AM 48.2°F 44.6°F 87% 30.08 in 10.0 miles Calm Calm - N/A   Overcast
10:53 AM 50.0°F 45.0°F 83% 30.07 in 4.0 miles Calm Calm - N/A   Haze
11:09 AM 51.8°F 44.6°F 76% 30.05 in 10.0 miles Calm Calm - N/A   Scattered Clouds
11:53 AM 53.1°F 46.0°F 77% 30.04 in 10.0 miles Calm Calm - N/A   Scattered Clouds
12:53 PM 55.0°F 46.9°F 74% 30.00 in 10.0 miles Calm Calm - N/A   Clear
1:53 PM 59.0°F 48.0°F 67% 29.96 in 10.0 miles Calm Calm - N/A   Partly Cloudy
2:53 PM 59.0°F 48.9°F 69% 29.94 in 10.0 miles Calm Calm - N/A   Scattered Clouds
3:53 PM 57.0°F 48.0°F 72% 29.92 in 10.0 miles Calm Calm - N/A   Scattered Clouds
4:53 PM 53.1°F 48.0°F 83% 29.90 in 10.0 miles North 3.5 mph - N/A   Scattered Clouds
5:53 PM 50.0°F 46.0°F 86% 29.89 in 10.0 miles Calm Calm - N/A   Scattered Clouds
6:53 PM 50.0°F 46.9°F 89% 29.89 in 10.0 miles Calm Calm - N/A   Clear
7:53 PM 51.1°F 46.9°F 86% 29.89 in 10.0 miles Calm Calm - N/A   Overcast
8:53 PM 55.0°F 48.0°F 77% 29.87 in 10.0 miles Variable 5.8 mph - 0.00 in   Overcast
9:53 PM 55.0°F 48.0°F 77% 29.88 in 10.0 miles SW 10.4 mph - 0.00 in Rain Light Rain
10:41 PM 53.6°F 48.2°F 82% 29.88 in 10.0 miles WSW 5.8 mph - 0.01 in Rain Light Rain
10:53 PM 54.0°F 48.0°F 80% 29.88 in 10.0 miles SW 8.1 mph - 0.01 in   Overcast
11:38 PM 53.6°F 48.2°F 82% 29.88 in 10.0 miles SW 5.8 mph - 0.00 in   Overcast
11:53 PM 54.0°F 48.0°F 80% 29.88 in 10.0 miles SW 5.8 mph - 0.00 in   Overcast
Moon Phase
Nov. 06 Nov. 06 Nov. 13 Nov. 20 Nov. 28
Sunrise:06:41 AM (PST) Moon Rise:11:13 PM (PST)11/6
Sunset:04:23 PM (PST) Moon Set:12:32 PM (PST)11/6

Copyright © 2014 The Weather Underground, Inc.